EW7837 Weather Reports


time (UTC)temp
F
wind
direction
speed
knots
gust
knots
rain 1hr
in
rain 24hr
in
rain mn
in
humidity
%
barometer
mb
20260504214558 70 272 0.0 0.0 0.00 0.00 0.00 63 1012.8
20260504213059 70 194 0.9 0.0 0.00 0.00 0.00 63 1013.0
20260504211548 69 259 0.9 0.0 0.00 0.00 0.00 61 1012.8
20260504210045 70 268 0.9 0.0 0.00 0.00 0.00 61 1012.7
20260504204542 69 265 0.9 0.0 0.00 0.00 0.00 62 1012.9
20260504203047 69 264 0.9 0.0 0.00 0.00 0.00 63 1012.8
20260504201541 69 259 0.0 0.0 0.00 0.00 0.00 62 1012.9
20260504200037 69 270 0.9 0.0 0.00 0.00 0.00 64 1013.2
20260504194541 68 246 0.9 0.0 0.00 0.00 0.00 65 1013.2
20260504193034 69 255 0.0 0.0 0.00 0.00 0.00 67 1013.3
20260504191538 68 267 0.9 0.0 0.00 0.00 0.00 65 1013.2
20260504190031 67 255 0.0 0.0 0.00 0.00 0.00 64 1013.3
20260504184531 67 262 0.9 0.0 0.00 0.00 0.00 64 1013.5
20260504183029 68 270 0.9 0.0 0.00 0.00 0.00 63 1013.7
20260504181527 67 254 0.9 0.0 0.00 0.00 0.00 66 1013.5
20260504180024 67 259 0.0 0.0 0.00 0.00 0.00 66 1013.2
20260504174525 67 260 0.0 0.0 0.00 0.00 0.00 65 1013.5
20260504173034 67 215 0.0 0.0 0.00 0.00 0.00 65 1013.2
20260504173032 67 215 0.0 0.0 0.00 0.00 0.00 65 1013.2
20260504171525 67 257 0.0 0.0 0.00 0.00 0.00 66 1013.2
20260504150112 63 249 0.0 0.0 0.00 0.00 0.00 73 1012.6
20260504081518 63 250 0.0 0.0 0.00 0.00 0.00 76 1012.5
20260504050011 64 273 0.0 0.0 0.00 0.00 0.00 74 1012.3
20260504044501 64 273 0.0 0.0 0.00 0.00 0.00 75 1012.1
20260504043113 64 273 0.0 0.0 0.00 0.00 0.00 75 1011.7
20260504041600 64 273 0.0 0.0 0.00 0.00 0.00 74 1011.5
20260504040116 64 273 0.0 0.0 0.00 0.00 0.00 74 1011.5
20260504034554 64 273 0.0 0.0 0.00 0.00 0.00 73 1011.6
20260504033054 64 273 0.0 0.0 0.00 0.00 0.00 71 1011.5
20260504031558 64 273 0.0 0.0 0.00 0.00 0.00 70 1011.2
20260504030021 64 273 0.0 0.0 0.00 0.00 0.00 70 1011.2
20260504024520 64 273 0.0 0.0 0.00 0.00 0.00 70 1011.1
20260504023017 64 273 0.0 0.0 0.00 0.00 0.00 69 1011.1
20260504021516 65 273 0.0 0.0 0.00 0.00 0.00 69 1011.2
20260504020015 65 273 0.0 0.0 0.00 0.00 0.00 68 1011.1
20260504014523 66 273 0.0 0.0 0.00 0.00 0.00 66 1011.1
20260504013044 66 247 0.0 0.0 0.00 0.00 0.00 66 1011.1
20260504011545 66 247 0.0 0.0 0.00 0.00 0.00 66 1010.7
20260504010050 66 250 0.0 0.0 0.00 0.00 0.00 66 1010.6
20260504004548 67 251 0.0 0.0 0.00 0.00 0.00 67 1010.5
20260504003043 67 269 0.0 0.0 0.00 0.00 0.00 65 1010.2
20260504001555 68 245 0.0 0.0 0.00 0.00 0.00 62 1010.3
20260504000010 69 268 0.0 0.0 0.00 0.00 0.00 60 1010.2
20260503234510 71 255 0.0 0.0 0.00 0.00 0.00 55 1009.7
20260503233044 72 265 0.0 0.0 0.00 0.00 0.00 56 1009.8
20260503231542 72 247 0.0 0.0 0.00 0.00 0.00 54 1010.0
20260503230040 71 269 0.0 0.0 0.00 0.00 0.00 56 1010.2
20260503224539 71 261 0.9 0.0 0.00 0.00 0.00 55 1010.2
20260503223034 71 265 0.0 0.0 0.00 0.00 0.00 56 1010.3
20260503221534 71 265 0.0 0.0 0.00 0.00 0.00 57 1010.4
20260503220030 70 242 0.0 0.0 0.00 0.00 0.00 60 1010.6